2019-073B

Last updated on Sat Nov 16 2019 00:02:04 GMT+0000 (Coordinated Universal Time)

1 44710U 19073B 19318.97738116 .00032027 49647-6 17228-3 0 9993 2 44710 28.4190 302.6570 7238160 185.4572 156.8794 2.39351599 257

Satellite not in orbit

2019-073B